GW0571 Weather Reports


Display with metric or nautical units.
time (UTC)temp
F
wind
direction
speed
MPH
gust
MPH
rain 1hr
in
rain 24hr
in
rain mn
in
humidity
%
barometer
mb
20260508012554 43 57 1.0 3.0 0.00 0.00 0.00 68 1009.8
20260508012052 44 27 1.0 5.0 0.00 0.00 0.00 65 1010.0
20260508011550 43 4 3.0 5.0 0.00 0.00 0.00 67 1009.9
20260508011047 43 8 2.0 4.0 0.00 0.00 0.00 69 1009.9
20260508010543 42 352 2.0 4.0 0.00 0.00 0.00 73 1009.9
20260508010041 42 32 1.0 2.0 0.00 0.00 0.00 75 1009.9
20260508005537 43 42 1.0 2.0 0.00 0.00 0.00 71 1009.7
20260508005034 43 42 2.0 3.0 0.00 0.00 0.00 68 1009.6
20260508004530 44 68 1.0 2.0 0.00 0.00 0.00 68 1009.7
20260508004027 44 67 1.0 2.0 0.00 0.00 0.00 66 1009.7
20260508003524 44 83 1.0 2.0 0.00 0.00 0.00 65 1009.5
20260508003021 45 82 0.0 2.0 0.00 0.00 0.00 63 1009.5
20260508002517 46 56 1.0 2.0 0.00 0.00 0.00 61 1009.7
20260508002015 46 70 1.0 2.0 0.00 0.00 0.00 61 1009.6
20260508001510 47 33 0.0 2.0 0.00 0.00 0.00 58 1009.3
20260508001007 47 22 0.0 2.0 0.00 0.00 0.00 58 1009.2
20260508000503 47 17 0.0 3.0 0.00 0.00 0.00 58 1009.6
20260508000000 47 15 2.0 2.0 0.00 0.00 0.00 56 1009.3
20260507235456 47 347 0.0 1.0 0.00 0.00 0.00 58 1009.3
20260507234954 48 326 0.0 3.0 0.00 0.00 0.00 57 1009.2
20260507234450 48 31 1.0 3.0 0.00 0.00 0.00 56 1009.5
20260507233949 48 14 0.0 2.0 0.00 0.00 0.00 55 1009.1
20260507233444 48 35 0.0 6.0 0.00 0.00 0.00 55 1009.1
20260507232942 48 9 0.0 6.0 0.00 0.00 0.00 55 1009.2
20260507232438 48 356 0.0 2.0 0.00 0.00 0.00 54 1009.1
20260507231936 49 17 0.0 2.0 0.00 0.00 0.00 53 1009.3
20260507231432 49 333 3.0 4.0 0.00 0.00 0.00 51 1009.0
20260507230929 50 23 5.0 6.0 0.00 0.00 0.00 51 1009.0
20260507230426 49 333 4.0 6.0 0.00 0.00 0.00 52 1009.2
20260507225926 50 322 2.0 6.0 0.00 0.00 0.00 53 1009.1
20260507225423 51 357 2.0 6.0 0.00 0.00 0.00 51 1009.0
20260507224919 50 335 2.0 8.0 0.00 0.00 0.00 52 1009.1
20260507224415 51 319 1.0 5.0 0.00 0.00 0.00 51 1009.0
20260507223912 52 313 3.0 5.0 0.00 0.00 0.00 49 1009.1
20260507223408 51 340 3.0 5.0 0.00 0.00 0.00 50 1009.0
20260507222905 51 341 3.0 5.0 0.00 0.00 0.00 50 1008.9
20260507222402 50 13 5.0 7.0 0.00 0.00 0.00 52 1009.1
20260507221859 50 3 3.0 5.0 0.00 0.00 0.00 52 1009.1
20260507221355 51 1 2.0 6.0 0.00 0.00 0.00 53 1009.1
20260507220851 51 318 1.0 5.0 0.00 0.00 0.00 51 1009.1
20260507220349 53 353 3.0 5.0 0.00 0.00 0.00 50 1009.0
20260507215845 51 348 1.0 4.0 0.00 0.00 0.00 51 1009.2
20260507215342 51 0 0.0 3.0 0.00 0.00 0.00 51 1009.0
20260507214839 50 352 2.0 4.0 0.00 0.00 0.00 53 1009.1
20260507214337 50 342 1.0 4.0 0.00 0.00 0.00 53 1009.2
20260507213832 51 10 2.0 3.0 0.00 0.00 0.00 52 1009.3
20260507213329 52 324 1.0 6.0 0.00 0.00 0.00 52 1009.1
20260507212826 51 319 2.0 8.0 0.00 0.00 0.00 51 1009.2
20260507212322 51 1 4.0 7.0 0.00 0.00 0.00 51 1009.1
20260507211818 52 329 2.0 4.0 0.00 0.00 0.00 49 1009.3
20260507211315 52 329 1.0 3.0 0.00 0.00 0.00 49 1009.1
20260507210812 51 23 1.0 7.0 0.00 0.00 0.00 50 1009.3
20260507210309 51 324 4.0 6.0 0.00 0.00 0.00 49 1009.3
20260507205805 51 323 3.0 7.0 0.00 0.00 0.00 48 1009.1
20260507205306 54 322 1.0 10.0 0.00 0.00 0.00 48 1009.2
20260507204758 53 341 2.0 8.0 0.00 0.00 0.00 46 1009.0
20260507204256 53 347 6.0 14.0 0.00 0.00 0.00 47 1009.0
20260507203754 52 320 2.0 7.0 0.00 0.00 0.00 47 1009.3
20260507203251 51 332 2.0 9.0 0.00 0.00 0.00 47 1009.1
20260507202748 52 8 3.0 8.0 0.00 0.00 0.00 48 1009.3
20260507202243 52 284 1.0 4.0 0.00 0.00 0.00 47 1009.2
20260507201738 53 280 5.0 8.0 0.00 0.00 0.00 46 1009.3
20260507201235 53 284 3.0 8.0 0.00 0.00 0.00 46 1009.1
20260507200732 54 295 2.0 5.0 0.00 0.00 0.00 46 1009.2
20260507200228 53 275 2.0 6.0 0.00 0.00 0.00 50 1009.5
20260507195724 53 254 4.0 6.0 0.00 0.00 0.00 46 1009.6
20260507195222 55 320 3.0 10.0 0.00 0.00 0.00 45 1009.5
20260507194719 53 328 3.0 7.0 0.00 0.00 0.00 48 1009.5
20260507194215 53 351 3.0 5.0 0.00 0.00 0.00 46 1009.5
20260507193711 52 238 5.0 9.0 0.00 0.00 0.00 47 1009.5
20260507193208 52 261 3.0 5.0 0.00 0.00 0.00 47 1009.8
20260507192704 52 264 8.0 12.0 0.00 0.00 0.00 46 1009.7
20260507192201 53 313 3.0 7.0 0.00 0.00 0.00 45 1009.7
20260507191657 52 313 2.0 6.0 0.00 0.00 0.00 47 1009.9
20260507191154 52 315 6.0 7.0 0.00 0.00 0.00 47 1009.6
20260507190651 52 311 6.0 7.0 0.00 0.00 0.00 47 1009.8
20260507190150 52 348 2.0 7.0 0.00 0.00 0.00 48 1009.8
20260507185648 52 277 3.0 7.0 0.00 0.00 0.00 46 1010.0
20260507185144 52 356 3.0 5.0 0.00 0.00 0.00 50 1009.9
20260507184642 53 280 4.0 9.0 0.00 0.00 0.00 45 1010.1
20260507184140 53 256 12.0 12.0 0.00 0.00 0.00 45 1010.0
20260507183636 52 290 3.0 7.0 0.00 0.00 0.00 46 1010.1
20260507183133 52 305 3.0 4.0 0.00 0.00 0.00 49 1009.9
20260507182629 51 332 3.0 6.0 0.00 0.00 0.00 47 1010.2
20260507182126 51 332 2.0 8.0 0.00 0.00 0.00 48 1010.2
20260507181622 52 321 2.0 7.0 0.00 0.00 0.00 46 1010.3
20260507181118 52 198 4.0 7.0 0.00 0.00 0.00 45 1010.2
20260507180615 52 241 6.0 9.0 0.00 0.00 0.00 47 1010.1
20260507180112 53 291 4.0 11.0 0.00 0.00 0.00 44 1010.3
20260507175608 53 273 2.0 9.0 0.00 0.00 0.00 43 1010.3
20260507175106 53 277 5.0 10.0 0.00 0.00 0.00 47 1010.2
20260507174603 53 328 2.0 11.0 0.00 0.00 0.00 47 1010.4
20260507174100 53 246 5.0 5.0 0.00 0.00 0.00 45 1010.5
20260507173557 53 228 2.0 5.0 0.00 0.00 0.00 49 1010.6
20260507173054 55 312 4.0 11.0 0.00 0.00 0.00 52 1010.4
20260507172550 52 244 6.0 10.0 0.00 0.00 0.00 51 1010.4
20260507172048 53 329 2.0 8.0 0.00 0.00 0.00 50 1010.4
20260507171543 52 2 3.0 5.0 0.00 0.00 0.00 50 1010.7
20260507171040 52 314 2.0 5.0 0.00 0.00 0.00 48 1010.6
20260507170537 51 242 5.0 8.0 0.00 0.00 0.00 50 1010.8
20260507170034 52 340 2.0 7.0 0.00 0.00 0.00 50 1010.7
20260507165529 50 243 5.0 10.0 0.00 0.00 0.00 51 1010.8
20260507165026 50 301 3.0 6.0 0.00 0.00 0.00 50 1011.0
20260507164522 53 9 7.0 8.0 0.00 0.00 0.00 48 1011.0
20260507164020 53 214 3.0 7.0 0.00 0.00 0.00 49 1011.0
20260507163516 51 242 2.0 5.0 0.00 0.00 0.00 49 1011.0
20260507163015 52 345 5.0 5.0 0.00 0.00 0.00 52 1011.1
20260507162509 50 348 3.0 8.0 0.00 0.00 0.00 50 1011.1
20260507162006 49 341 0.0 5.0 0.00 0.00 0.00 51 1011.2
20260507161503 49 269 0.0 6.0 0.00 0.00 0.00 54 1010.9
20260507161000 49 254 5.0 7.0 0.00 0.00 0.00 52 1011.1
20260507160455 49 306 3.0 5.0 0.00 0.00 0.00 52 1011.3
20260507155951 49 338 3.0 6.0 0.00 0.00 0.00 51 1011.3
20260507155447 50 331 3.0 6.0 0.00 0.00 0.00 53 1011.1
20260507154945 51 356 2.0 4.0 0.00 0.00 0.00 54 1011.3
20260507154441 50 298 2.0 6.0 0.00 0.00 0.00 50 1011.3
20260507153938 50 14 4.0 7.0 0.00 0.00 0.00 51 1011.4
20260507153435 51 278 3.0 9.0 0.00 0.00 0.00 48 1011.4
20260507152931 50 227 10.0 16.0 0.00 0.00 0.00 49 1011.5
20260507152427 51 306 3.0 9.0 0.00 0.00 0.00 49 1011.4
20260507151923 50 355 2.0 5.0 0.00 0.00 0.00 51 1011.5
20260507151420 51 288 2.0 13.0 0.00 0.00 0.00 54 1011.4
20260507150917 50 224 9.0 10.0 0.00 0.00 0.00 50 1011.6
20260507150414 49 64 2.0 5.0 0.00 0.00 0.00 58 1011.7
20260507145910 48 248 5.0 11.0 0.00 0.00 0.00 57 1012.0
20260507145406 48 246 4.0 12.0 0.00 0.00 0.00 54 1012.1
20260507144903 47 230 5.0 11.0 0.00 0.00 0.00 58 1011.7
20260507144401 49 224 4.0 12.0 0.00 0.00 0.00 61 1011.8
20260507143857 47 271 3.0 6.0 0.00 0.00 0.00 59 1012.2
20260507143354 47 258 1.0 8.0 0.00 0.00 0.00 56 1012.0
20260507142851 48 6 5.0 7.0 0.00 0.00 0.00 54 1011.8
20260507142347 48 283 5.0 11.0 0.00 0.00 0.00 60 1012.0
20260507141844 48 157 3.0 5.0 0.00 0.00 0.00 58 1012.2
20260507141340 48 336 2.0 5.0 0.00 0.00 0.00 58 1012.0
20260507140837 48 264 3.0 7.0 0.00 0.00 0.00 59 1012.1
20260507140334 47 332 4.0 8.0 0.00 0.00 0.00 58 1012.0
20260507135832 47 229 2.0 8.0 0.00 0.00 0.00 56 1012.0
20260507135328 47 264 3.0 7.0 0.00 0.00 0.00 61 1012.3
20260507134826 47 2 5.0 6.0 0.00 0.00 0.00 62 1012.4
20260507134322 46 306 3.0 4.0 0.00 0.00 0.00 64 1012.3
20260507133817 45 359 3.0 7.0 0.00 0.00 0.00 65 1012.4
20260507133314 46 297 0.0 4.0 0.00 0.00 0.00 64 1012.1
20260507132812 44 51 3.0 6.0 0.00 0.00 0.00 62 1012.4
20260507132308 44 329 2.0 5.0 0.00 0.00 0.00 64 1012.4
20260507131806 45 253 1.0 4.0 0.00 0.00 0.00 66 1012.2
20260507131302 45 284 1.0 4.0 0.00 0.00 0.00 67 1012.3
20260507130759 44 41 2.0 4.0 0.00 0.00 0.00 66 1012.2
20260507130256 44 299 1.0 4.0 0.00 0.00 0.00 68 1012.4
20260507125755 43 343 1.0 4.0 0.00 0.00 0.00 66 1012.3
20260507125252 43 56 2.0 4.0 0.00 0.00 0.00 69 1012.3
20260507124749 43 15 2.0 3.0 0.00 0.00 0.00 73 1012.4
20260507124246 43 333 1.0 3.0 0.00 0.00 0.00 71 1012.4
20260507123744 42 278 0.0 5.0 0.00 0.00 0.00 74 1012.6
20260507123241 42 301 2.0 4.0 0.00 0.00 0.00 75 1012.5
20260507122737 42 50 3.0 4.0 0.00 0.00 0.00 76 1012.4
20260507122232 42 245 0.0 4.0 0.02 0.00 0.00 72 1012.5
20260507121728 41 319 3.0 3.0 0.02 0.00 0.00 74 1012.4
20260507121224 41 331 3.0 4.0 0.00 0.00 0.00 76 1012.2
20260507120721 41 246 3.0 4.0 0.00 0.00 0.00 76 1012.5
20260507120218 41 260 1.0 4.0 0.00 0.00 0.00 78 1012.3
20260507115714 41 9 3.0 4.0 0.00 0.00 0.00 82 1012.3
20260507115210 40 40 3.0 5.0 0.00 0.00 0.00 80 1012.3
20260507114705 40 35 0.0 4.0 0.00 0.00 0.00 84 1012.0
20260507114203 40 354 0.0 6.0 0.00 0.00 0.00 85 1012.2
20260507113700 39 12 2.0 4.0 0.00 0.00 0.00 87 1012.3
20260507113157 37 294 0.0 2.0 0.00 0.00 0.00 94 1012.1
20260507112655 37 60 2.0 3.0 0.00 0.00 0.00 96 1012.0
20260507112152 37 36 1.0 3.0 0.00 0.00 0.00 96 1012.1
20260507111649 37 103 2.0 3.0 0.00 0.00 0.00 96 1012.0
20260507111145 36 110 2.0 4.0 0.00 0.00 0.00 96 1011.8
20260507110641 35 89 2.0 3.0 0.00 0.00 0.00 96 1012.1
20260507110138 34 110 1.0 3.0 0.00 0.00 0.00 96 1012.0
20260507105635 34 85 1.0 3.0 0.00 0.00 0.00 96 1012.0
20260507105131 34 57 1.0 3.0 0.00 0.00 0.00 96 1012.2
20260507104629 33 88 0.0 3.0 0.00 0.00 0.00 96 1011.8
20260507104125 33 62 2.0 3.0 0.00 0.00 0.00 96 1012.1
20260507103621 33 33 2.0 3.0 0.00 0.00 0.00 96 1011.8
20260507103118 33 65 1.0 2.0 0.00 0.00 0.00 96 1011.7
20260507102615 33 83 0.0 3.0 0.00 0.00 0.00 96 1011.7
20260507102111 33 82 2.0 3.0 0.00 0.00 0.00 96 1011.7
20260507101607 33 58 1.0 2.0 0.00 0.00 0.00 96 1011.4
20260507101103 34 74 2.0 2.0 0.00 0.00 0.00 96 1011.5
20260507100600 34 37 0.0 3.0 0.00 0.00 0.00 95 1011.5
20260507100058 34 110 2.0 2.0 0.00 0.00 0.00 95 1011.7
20260507095556 34 113 1.0 2.0 0.00 0.00 0.00 95 1011.5
20260507095052 35 105 2.0 3.0 0.00 0.00 0.00 95 1011.5
20260507094548 35 358 1.0 2.0 0.00 0.00 0.00 95 1011.5
20260507094046 36 40 0.0 2.0 0.00 0.00 0.00 95 1011.4
20260507093543 36 20 0.0 2.0 0.00 0.00 0.00 94 1011.6
20260507093042 36 4 0.0 2.0 0.00 0.00 0.00 94 1011.7
20260507092537 36 350 0.0 2.0 0.00 0.00 0.00 94 1011.6
20260507092035 36 335 0.0 2.0 0.00 0.00 0.00 94 1011.6
20260507091531 37 4 0.0 2.0 0.00 0.00 0.00 93 1011.7
20260507091027 37 141 0.0 1.0 0.00 0.00 0.00 93 1011.5
20260507090523 37 356 0.0 2.0 0.00 0.00 0.00 93 1011.6
20260507090020 37 348 0.0 2.0 0.00 0.00 0.00 92 1011.7
20260507085517 38 342 1.0 2.0 0.00 0.00 0.00 92 1011.5
20260507085014 38 353 0.0 2.0 0.00 0.00 0.00 91 1011.5
20260507084511 38 353 1.0 2.0 0.00 0.00 0.00 91 1011.8
20260507084008 38 13 1.0 2.0 0.00 0.00 0.00 89 1011.7
20260507083504 38 310 0.0 2.0 0.00 0.00 0.00 89 1011.6
20260507083001 38 347 1.0 3.0 0.00 0.00 0.00 88 1011.7
20260507082457 39 327 2.0 4.0 0.00 0.00 0.00 88 1011.8
20260507081953 39 350 3.0 3.0 0.00 0.00 0.00 88 1011.6
20260507081449 39 278 0.0 3.0 0.00 0.00 0.00 87 1011.8
20260507080947 39 331 2.0 3.0 0.00 0.00 0.00 87 1011.5
20260507080442 39 341 1.0 3.0 0.00 0.00 0.00 87 1011.7
20260507075938 39 263 0.0 3.0 0.00 0.00 0.00 88 1011.8
20260507075435 39 353 0.0 2.0 0.00 0.00 0.00 88 1011.6
20260507074931 39 342 1.0 3.0 0.00 0.00 0.00 87 1011.6
20260507074428 39 326 2.0 3.0 0.00 0.00 0.00 87 1011.5
20260507073926 39 349 2.0 3.0 0.00 0.00 0.00 88 1011.6
20260507073422 39 339 0.0 5.0 0.00 0.00 0.00 88 1011.3
20260507072919 39 3 2.0 3.0 0.00 0.00 0.00 89 1011.4
20260507072417 40 55 0.0 2.0 0.00 0.00 0.00 89 1011.5
20260507071914 40 333 1.0 2.0 0.00 0.00 0.00 89 1011.5
20260507071411 40 252 0.0 4.0 0.00 0.00 0.00 89 1011.7
20260507070907 40 7 1.0 4.0 0.00 0.00 0.00 90 1011.8
20260507070405 40 250 0.0 5.0 0.00 0.00 0.00 90 1011.8
20260507065901 40 5 0.0 1.0 0.00 0.00 0.00 91 1011.7
20260507065358 40 338 3.0 7.0 0.00 0.00 0.00 91 1011.5
20260507064855 41 301 2.0 5.0 0.00 0.00 0.00 92 1011.4
20260507064353 41 26 3.0 5.0 0.00 0.00 0.00 92 1011.5
20260507063851 41 340 4.0 5.0 0.00 0.00 0.00 92 1011.6
20260507063348 41 332 2.0 4.0 0.00 0.00 0.00 92 1011.4
20260507062845 41 349 3.0 6.0 0.00 0.00 0.00 92 1011.4
20260507062341 41 353 7.0 9.0 0.00 0.00 0.00 93 1011.3
20260507061839 41 346 3.0 5.0 0.00 0.00 0.00 94 1011.2
20260507061337 41 336 2.0 4.0 0.00 0.00 0.00 95 1011.2
20260507060835 42 303 4.0 5.0 0.00 0.00 0.00 95 1011.2
20260507060332 42 335 2.0 5.0 0.00 0.00 0.00 95 1011.1
20260507055829 42 311 4.0 7.0 0.00 0.00 0.00 95 1011.1
20260507055323 42 246 3.0 5.0 0.00 0.00 0.00 95 1011.3
20260507054821 42 289 0.0 6.0 0.00 0.00 0.00 96 1011.2
20260507054316 42 318 2.0 5.0 0.00 0.00 0.00 96 1011.1
20260507053814 42 257 3.0 7.0 0.00 0.00 0.00 96 1010.9
20260507053312 42 4 1.0 7.0 0.00 0.00 0.00 96 1011.0
20260507052811 42 308 1.0 4.0 0.00 0.00 0.00 96 1011.2
20260507052307 42 316 0.0 8.0 0.00 0.00 0.00 96 1011.2
20260507051805 42 338 0.0 3.0 0.00 0.00 0.00 96 1011.3
20260507051302 43 23 1.0 3.0 0.00 0.00 0.00 96 1011.2
20260507050758 43 317 0.0 3.0 0.00 0.00 0.00 96 1011.3
20260507050255 43 0 2.0 4.0 0.00 0.00 0.00 96 1011.4
20260507045752 43 2 2.0 4.0 0.00 0.00 0.00 96 1011.3
20260507045248 43 15 3.0 3.0 0.00 0.00 0.00 96 1011.3
20260507044745 43 94 1.0 1.0 0.00 0.00 0.00 96 1011.3
20260507044241 43 246 1.0 2.0 0.00 0.00 0.00 96 1011.2
20260507043738 43 38 0.0 1.0 0.00 0.00 0.00 96 1011.3
20260507043235 43 283 1.0 3.0 0.00 0.00 0.00 96 1011.1
20260507042731 42 113 0.0 2.0 0.00 0.00 0.00 96 1011.3
20260507042226 42 135 0.0 1.0 0.00 0.00 0.00 96 1011.1
20260507041724 42 135 0.0 2.0 0.00 0.00 0.00 96 1010.9
20260507041220 42 103 0.0 2.0 0.00 0.00 0.00 96 1010.9
20260507040718 42 127 2.0 3.0 0.00 0.00 0.00 96 1010.6
20260507040213 42 124 0.0 2.0 0.00 0.37 0.37 96 1011.1
20260507035710 42 135 2.0 3.0 0.00 0.37 0.37 96 1010.9
20260507035205 42 224 0.0 1.0 0.00 0.37 0.37 96 1010.7
20260507034702 42 110 2.0 3.0 0.00 0.37 0.37 96 1010.6
20260507034200 42 118 1.0 2.0 0.00 0.37 0.37 96 1011.0
20260507033658 42 69 0.0 2.0 0.00 0.37 0.37 96 1010.8
20260507033155 42 91 0.0 2.0 0.00 0.37 0.37 96 1010.4
20260507032652 42 104 2.0 2.0 0.00 0.37 0.37 96 1010.8
20260507032148 42 121 1.0 2.0 0.00 0.37 0.37 96 1011.0
20260507031645 42 107 2.0 2.0 0.00 0.37 0.37 96 1010.9
20260507031142 42 110 0.0 1.0 0.00 0.37 0.37 96 1011.2
20260507030638 42 89 0.0 0.0 0.00 0.37 0.37 96 1011.1
20260507030137 42 96 2.0 3.0 0.00 0.37 0.37 96 1011.0
20260507025633 42 117 0.0 1.0 0.00 0.37 0.37 96 1011.1
20260507025130 42 146 1.0 3.0 0.00 0.37 0.37 96 1011.2
20260507024628 42 146 1.0 3.0 0.00 0.37 0.37 96 1011.3
20260507024125 42 135 2.0 3.0 0.00 0.37 0.37 96 1011.2
20260507023620 42 128 2.0 2.0 0.00 0.37 0.37 96 1011.1
20260507023118 42 107 1.0 3.0 0.00 0.37 0.37 96 1010.8
20260507022615 42 89 2.0 3.0 0.00 0.37 0.37 96 1011.2
20260507022110 42 138 3.0 3.0 0.00 0.37 0.37 96 1011.4
20260507021607 42 135 2.0 3.0 0.00 0.37 0.37 96 1011.5
20260507021103 42 101 1.0 2.0 0.00 0.37 0.37 96 1011.3
20260507020601 42 190 0.0 2.0 0.00 0.37 0.37 96 1011.6
20260507020057 42 104 2.0 2.0 0.00 0.37 0.37 96 1011.4
20260507015556 42 93 2.0 2.0 0.00 0.37 0.37 96 1011.4
20260507015053 42 102 0.0 2.0 0.00 0.37 0.37 96 1011.6
20260507014549 43 77 0.0 0.0 0.00 0.37 0.37 96 1011.6
20260507014044 43 76 0.0 1.0 0.00 0.37 0.37 96 1011.3
20260507013542 43 53 1.0 2.0 0.00 0.37 0.37 96 1011.4
20260507013039 43 32 1.0 2.0 0.00 0.37 0.37 96 1011.4